Time,TemperatureF,DewpointF,PressureIn,WindDirection,WindDirectionDegrees,WindSpeedMPH,WindSpeedGustMPH,Humidity,HourlyPrecipIn,Conditions,Clouds,dailyrainin,SolarRadiationWatts/m^2,SoftwareType,DateUTC
2013-07-31 00:02:00,59.0,55.0,30.17,SSE,158,0.0,0.0,88,0.00,,,0.00,0.000000,,2013-07-31 04:02:00,
2013-07-31 00:22:00,60.0,57.0,30.17,North,0,0.0,0.0,90,0.00,,,0.00,0.000000,,2013-07-31 04:22:00,
2013-07-31 00:32:00,60.0,57.0,30.17,North,0,0.0,0.0,90,0.00,,,0.00,0.000000,,2013-07-31 04:32:00,
2013-07-31 00:42:00,60.0,57.0,30.17,North,0,0.0,0.0,90,0.00,,,0.00,0.000000,,2013-07-31 04:42:00,
2013-07-31 00:52:00,60.0,57.0,30.17,North,0,0.0,0.0,90,0.00,,,0.00,0.000000,,2013-07-31 04:52:00,
2013-07-31 01:02:00,60.0,57.0,30.17,North,0,0.0,0.0,90,0.00,,,0.00,0.000000,,2013-07-31 05:02:00,
2013-07-31 01:22:00,59.0,56.0,30.17,North,0,0.0,0.0,90,0.00,,,0.00,0.000000,,2013-07-31 05:22:00,
2013-07-31 01:32:00,59.0,56.0,30.17,North,0,0.0,0.0,90,0.00,,,0.00,0.000000,,2013-07-31 05:32:00,
2013-07-31 01:42:00,60.0,57.0,30.17,North,0,0.0,0.0,90,0.00,,,0.00,0.000000,,2013-07-31 05:42:00,
2013-07-31 01:52:00,60.0,57.0,30.17,North,0,0.0,0.0,90,0.00,,,0.00,0.000000,,2013-07-31 05:52:00,
2013-07-31 02:02:00,60.0,57.0,30.17,North,0,0.0,0.0,90,0.00,,,0.00,0.000000,,2013-07-31 06:02:00,
2013-07-31 02:32:00,61.0,58.0,30.17,North,0,0.0,0.0,90,0.00,,,0.00,0.000000,,2013-07-31 06:32:00,
2013-07-31 02:43:00,61.0,58.0,30.17,North,0,0.0,0.0,90,0.00,,,0.00,0.000000,,2013-07-31 06:43:00,
2013-07-31 02:53:00,60.0,57.0,30.17,North,0,0.0,0.0,90,0.00,,,0.00,0.000000,,2013-07-31 06:53:00,
2013-07-31 03:02:00,59.0,56.0,30.17,North,2,0.0,0.0,90,0.00,,,0.00,0.000000,,2013-07-31 07:02:00,
2013-07-31 03:12:00,59.0,56.0,30.17,SE,131,0.0,0.0,90,0.00,,,0.00,0.000000,,2013-07-31 07:12:00,
2013-07-31 03:22:00,60.0,57.0,30.17,North,0,0.0,0.0,90,0.00,,,0.00,0.000000,,2013-07-31 07:22:00,
2013-07-31 03:32:00,60.0,57.0,30.17,North,0,0.0,0.0,90,0.00,,,0.00,0.000000,,2013-07-31 07:32:00,
2013-07-31 03:43:00,60.0,57.0,30.16,North,0,0.0,0.0,90,0.00,,,0.00,0.000000,,2013-07-31 07:43:00,
2013-07-31 03:52:00,59.0,56.0,30.16,South,172,0.0,0.0,90,0.00,,,0.00,0.000000,,2013-07-31 07:52:00,
2013-07-31 04:02:00,58.0,55.0,30.16,North,0,0.0,0.0,90,0.00,,,0.00,0.000000,,2013-07-31 08:02:00,
2013-07-31 04:12:00,59.0,56.0,30.16,North,0,0.0,0.0,90,0.00,,,0.00,0.000000,,2013-07-31 08:12:00,
2013-07-31 04:32:00,59.0,56.0,30.16,North,0,0.0,0.0,90,0.00,,,0.00,0.000000,,2013-07-31 08:32:00,
2013-07-31 04:42:00,59.0,56.0,30.16,South,173,0.0,0.0,91,0.00,,,0.00,0.000000,,2013-07-31 08:42:00,
2013-07-31 04:53:00,59.0,56.0,30.16,South,173,0.0,0.0,90,0.00,,,0.00,0.000000,,2013-07-31 08:53:00,
2013-07-31 05:02:00,58.0,55.0,30.16,North,0,0.0,0.0,91,0.00,,,0.00,0.000000,,2013-07-31 09:02:00,
2013-07-31 05:52:00,58.0,55.0,30.16,North,0,0.0,0.0,91,0.00,,,0.00,0.000000,,2013-07-31 09:52:00,
2013-07-31 06:02:00,58.0,55.0,30.17,North,0,0.0,0.0,91,0.00,,,0.00,0.000000,,2013-07-31 10:02:00,
2013-07-31 06:32:00,58.0,55.0,30.17,NNE,14,0.0,0.0,91,0.00,,,0.00,4.000000,,2013-07-31 10:32:00,
2013-07-31 06:52:00,59.0,56.0,30.17,NNW,332,0.0,0.0,91,0.00,,,0.00,22.000000,,2013-07-31 10:52:00,
2013-07-31 07:22:00,60.0,57.0,30.18,North,0,0.0,0.0,91,0.00,,,0.00,47.000000,,2013-07-31 11:22:00,
2013-07-31 07:43:00,61.0,58.0,30.17,North,0,0.0,0.0,91,0.00,,,0.00,85.000000,,2013-07-31 11:43:00,
2013-07-31 07:52:00,61.0,58.0,30.17,SSW,206,0.0,0.0,91,0.00,,,0.00,99.000000,,2013-07-31 11:52:00,
2013-07-31 08:03:00,61.0,58.0,30.17,SSW,206,0.0,0.0,91,0.00,,,0.00,99.000000,,2013-07-31 12:03:00,
2013-07-31 08:43:00,70.0,63.0,30.19,NNE,25,0.0,0.0,79,0.00,,,0.00,232.000000,,2013-07-31 12:43:00,
2013-07-31 09:02:00,70.0,63.0,30.19,North,0,0.0,0.0,79,0.00,,,0.00,225.000000,,2013-07-31 13:02:00,
2013-07-31 09:33:00,75.0,62.0,30.19,SE,140,0.0,1.0,65,0.00,,,0.00,384.000000,,2013-07-31 13:33:00,
2013-07-31 09:43:00,75.0,62.0,30.19,SE,142,0.0,1.0,64,0.00,,,0.00,317.000000,,2013-07-31 13:43:00,
2013-07-31 09:51:00,77.0,63.0,30.19,South,183,0.0,1.0,63,0.00,,,0.00,472.000000,,2013-07-31 13:51:00,
2013-07-31 10:23:00,77.0,63.0,30.19,South,183,0.0,1.0,63,0.00,,,0.00,472.000000,,2013-07-31 14:23:00,
2013-07-31 10:34:00,77.0,63.0,30.19,South,183,0.0,1.0,63,0.00,,,0.00,472.000000,,2013-07-31 14:34:00,
2013-07-31 10:43:00,77.0,63.0,30.19,South,183,0.0,1.0,63,0.00,,,0.00,472.000000,,2013-07-31 14:43:00,
2013-07-31 11:33:00,78.0,61.0,30.17,South,171,2.0,5.0,56,0.00,,,0.00,852.000000,,2013-07-31 15:33:00,
2013-07-31 11:44:00,79.0,63.0,30.17,SSW,210,1.0,6.0,58,0.00,,,0.00,826.000000,,2013-07-31 15:44:00,
2013-07-31 11:53:00,79.0,63.0,30.17,SSW,210,1.0,6.0,58,0.00,,,0.00,826.000000,,2013-07-31 15:53:00,
2013-07-31 12:02:00,79.0,63.0,30.17,SSW,210,1.0,6.0,58,0.00,,,0.00,826.000000,,2013-07-31 16:02:00,
2013-07-31 12:33:00,78.0,62.0,30.16,SSE,167,1.0,4.0,59,0.00,,,0.00,624.000000,,2013-07-31 16:33:00,
2013-07-31 12:44:00,78.0,62.0,30.15,SSW,208,2.0,3.0,58,0.00,,,0.00,585.000000,,2013-07-31 16:44:00,
2013-07-31 12:52:00,78.0,63.0,30.15,SSW,208,2.0,4.0,60,0.00,,,0.00,384.000000,,2013-07-31 16:52:00,
2013-07-31 13:03:00,77.0,62.0,30.15,SW,215,1.0,2.0,60,0.00,,,0.00,373.000000,,2013-07-31 17:03:00,
2013-07-31 13:13:00,77.0,61.0,30.15,SW,219,2.0,4.0,58,0.00,,,0.00,472.000000,,2013-07-31 17:13:00,
2013-07-31 13:33:00,77.0,61.0,30.14,WSW,238,2.0,4.0,57,0.00,,,0.00,420.000000,,2013-07-31 17:33:00,
2013-07-31 13:43:00,78.0,61.0,30.14,SW,230,1.0,3.0,56,0.00,,,0.00,482.000000,,2013-07-31 17:43:00,
2013-07-31 13:53:00,78.0,61.0,30.15,SW,233,2.0,3.0,55,0.00,,,0.00,419.000000,,2013-07-31 17:53:00,
2013-07-31 14:02:00,78.0,62.0,30.14,WSW,242,1.0,2.0,59,0.00,,,0.00,494.000000,,2013-07-31 18:02:00,
2013-07-31 14:33:00,77.0,63.0,30.13,SSW,199,1.0,4.0,62,0.00,,,0.00,299.000000,,2013-07-31 18:33:00,
2013-07-31 14:43:00,77.0,64.0,30.13,SSW,206,1.0,2.0,64,0.00,,,0.00,309.000000,,2013-07-31 18:43:00,
2013-07-31 14:52:00,77.0,63.0,30.13,SSW,200,1.0,2.0,63,0.00,,,0.00,317.000000,,2013-07-31 18:52:00,
2013-07-31 15:03:00,77.0,63.0,30.13,SSW,210,2.0,4.0,62,0.00,,,0.00,325.000000,,2013-07-31 19:03:00,
2013-07-31 15:12:00,77.0,63.0,30.13,SW,234,1.0,3.0,61,0.00,,,0.00,319.000000,,2013-07-31 19:12:00,
2013-07-31 15:43:00,77.0,63.0,30.12,WSW,237,1.0,2.0,63,0.00,,,0.00,294.000000,,2013-07-31 19:43:00,
2013-07-31 15:53:00,77.0,63.0,30.12,South,184,0.0,1.0,63,0.00,,,0.00,298.000000,,2013-07-31 19:53:00,
2013-07-31 16:03:00,78.0,63.0,30.12,SSE,158,1.0,2.0,61,0.00,,,0.00,276.000000,,2013-07-31 20:03:00,
2013-07-31 16:12:00,78.0,63.0,30.12,South,173,0.0,1.0,61,0.00,,,0.00,275.000000,,2013-07-31 20:12:00,
2013-07-31 16:23:00,77.0,63.0,30.11,West,264,1.0,2.0,61,0.00,,,0.00,312.000000,,2013-07-31 20:23:00,
2013-07-31 16:43:00,78.0,63.0,30.11,South,182,1.0,3.0,61,0.00,,,0.00,313.000000,,2013-07-31 20:43:00,
2013-07-31 16:52:00,77.0,63.0,30.10,SW,216,1.0,2.0,62,0.00,,,0.00,290.000000,,2013-07-31 20:52:00,
2013-07-31 17:03:00,77.0,63.0,30.10,WSW,239,0.0,2.0,63,0.00,,,0.00,252.000000,,2013-07-31 21:03:00,
2013-07-31 18:02:00,76.0,65.0,30.09,WSW,257,1.0,2.0,68,0.00,,,0.00,182.000000,,2013-07-31 22:02:00,
2013-07-31 18:33:00,77.0,65.0,30.09,South,190,1.0,2.0,66,0.00,,,0.00,226.000000,,2013-07-31 22:33:00,
2013-07-31 18:53:00,77.0,63.0,30.09,SW,216,0.0,2.0,63,0.00,,,0.00,175.000000,,2013-07-31 22:53:00,
2013-07-31 19:02:00,77.0,63.0,30.09,SSW,195,0.0,2.0,63,0.00,,,0.00,153.000000,,2013-07-31 23:02:00,
2013-07-31 19:12:00,77.0,63.0,30.08,South,187,0.0,1.0,62,0.00,,,0.00,195.000000,,2013-07-31 23:12:00,
2013-07-31 19:22:00,76.0,62.0,30.07,SSW,208,0.0,2.0,63,0.00,,,0.00,85.000000,,2013-07-31 23:22:00,
2013-07-31 19:32:00,75.0,62.0,30.08,SSW,210,0.0,1.0,65,0.00,,,0.00,74.000000,,2013-07-31 23:32:00,
2013-07-31 19:42:00,75.0,63.0,30.07,South,178,0.0,1.0,67,0.00,,,0.00,94.000000,,2013-07-31 23:42:00,
2013-07-31 19:52:00,74.0,62.0,30.08,South,169,1.0,3.0,67,0.00,,,0.00,66.000000,,2013-07-31 23:52:00,
2013-07-31 20:03:00,74.0,63.0,30.08,South,169,0.0,1.0,68,0.00,,,0.00,50.000000,,2013-08-01 00:03:00,
2013-07-31 20:12:00,74.0,63.0,30.08,South,169,0.0,1.0,68,0.00,,,0.00,50.000000,,2013-08-01 00:12:00,
2013-07-31 20:22:00,74.0,63.0,30.08,South,169,0.0,1.0,68,0.00,,,0.00,50.000000,,2013-08-01 00:22:00,
2013-07-31 20:32:00,73.0,63.0,30.07,SE,144,1.0,2.0,72,0.00,,,0.00,3.000000,,2013-08-01 00:32:00,
2013-07-31 20:43:00,73.0,64.0,30.07,South,169,1.0,2.0,73,0.00,,,0.00,1.000000,,2013-08-01 00:43:00,
2013-07-31 20:52:00,73.0,64.0,30.07,South,169,1.0,2.0,73,0.00,,,0.00,1.000000,,2013-08-01 00:52:00,
2013-07-31 21:03:00,73.0,64.0,30.07,South,169,1.0,2.0,73,0.00,,,0.00,1.000000,,2013-08-01 01:03:00,
2013-07-31 21:12:00,73.0,64.0,30.07,South,169,1.0,2.0,73,0.00,,,0.00,1.000000,,2013-08-01 01:12:00,
2013-07-31 21:22:00,71.0,64.0,30.08,South,181,1.0,2.0,79,0.00,,,0.00,0.000000,,2013-08-01 01:22:00,
2013-07-31 21:33:00,71.0,64.0,30.08,South,181,1.0,2.0,79,0.00,,,0.00,0.000000,,2013-08-01 01:33:00,
2013-07-31 21:43:00,71.0,64.0,30.08,South,181,1.0,2.0,79,0.00,,,0.00,0.000000,,2013-08-01 01:43:00,
2013-07-31 21:53:00,71.0,62.0,30.08,South,179,1.0,2.0,74,0.00,,,0.00,0.000000,,2013-08-01 01:53:00,
2013-07-31 22:02:00,71.0,62.0,30.08,South,185,1.0,1.0,73,0.00,,,0.00,0.000000,,2013-08-01 02:02:00,
2013-07-31 22:32:00,71.0,62.0,30.08,SSE,168,1.0,2.0,73,0.00,,,0.00,0.000000,,2013-08-01 02:32:00,
2013-07-31 22:52:00,71.0,62.0,30.07,South,171,0.0,1.0,73,0.00,,,0.00,0.000000,,2013-08-01 02:52:00,
2013-07-31 23:02:00,71.0,62.0,30.07,South,171,0.0,1.0,73,0.00,,,0.00,0.000000,,2013-08-01 03:02:00,
2013-07-31 23:32:00,70.0,62.0,30.07,SSE,154,1.0,3.0,76,0.00,,,0.00,0.000000,,2013-08-01 03:32:00,
2013-07-31 23:53:00,70.0,62.0,30.07,SSW,209,0.0,0.0,77,0.00,,,0.00,0.000000,,2013-08-01 03:53:00,